KK4OHF Weather Reports


time (UTC)temp
F
wind
direction
speed
knots
gust
knots
rain 1hr
in
rain 24hr
in
rain mn
in
humidity
%
barometer
mb
20260902044005 76 355 0.0 0.9 0.00 0.00 0.00 87 1018.3
20260902043505 76 355 0.0 0.0 0.00 0.00 0.00 87 1018.3
20260902043006 76 355 0.0 0.9 0.00 0.00 0.00 87 1018.3
20260902042505 76 355 0.0 0.0 0.00 0.00 0.00 87 1018.3
20260902041505 76 355 0.0 0.0 0.00 0.00 0.00 87 1018.2
20260902041005 76 355 0.0 0.0 0.00 0.00 0.00 87 1018.2
20260902040005 77 355 0.0 0.0 0.00 0.00 0.00 87 1018.3
20260902035505 77 355 0.0 0.0 0.00 0.00 0.00 86 1018.3
20260902035006 77 355 0.0 0.0 0.00 0.00 0.00 86 1018.3
20260902034505 77 355 0.0 0.0 0.00 0.00 0.00 86 1018.4
20260902034005 77 355 0.0 0.9 0.00 0.00 0.00 86 1018.4
20260902033005 77 355 0.0 0.9 0.00 0.00 0.00 86 1018.4
20260902032005 78 355 0.0 0.9 0.00 0.00 0.00 85 1018.5
20260902031006 78 355 0.0 0.9 0.00 0.00 0.00 85 1018.5
20260902030505 78 355 0.0 0.0 0.00 0.00 0.00 84 1018.5
20260902030006 78 355 0.0 0.0 0.00 0.00 0.00 84 1018.1
20260902025005 79 355 0.0 0.0 0.00 0.00 0.00 84 1018.1
20260902024505 79 355 0.0 0.0 0.00 0.00 0.00 84 1018.1
20260902024005 79 355 0.0 0.0 0.00 0.00 0.00 84 1018.1
20260902023505 79 355 0.0 0.0 0.00 0.00 0.00 84 1018.1
20260902023006 79 355 0.0 0.0 0.00 0.00 0.00 84 1018.1
20260902022505 79 355 0.0 0.0 0.00 0.00 0.00 83 1018.1
20260902022006 80 355 0.0 0.9 0.00 0.00 0.00 83 1017.9
20260902021505 80 355 0.0 0.9 0.00 0.00 0.00 83 1017.9
20260902021006 80 355 0.0 0.0 0.00 0.00 0.00 83 1017.9
20260902020505 80 355 0.0 0.0 0.00 0.00 0.00 83 1017.9
20260902020004 80 355 0.0 0.9 0.00 0.00 0.00 82 1017.8
20260902015506 81 355 0.0 0.9 0.00 0.00 0.00 82 1017.8
20260902014506 81 355 0.0 0.0 0.00 0.00 0.00 81 1017.8
20260902013505 82 355 0.0 0.0 0.00 0.00 0.00 81 1017.5
20260902012005 82 355 0.0 0.0 0.00 0.00 0.00 80 1017.4
20260902011504 83 355 0.0 0.0 0.00 0.00 0.00 79 1017.4
20260902011006 83 355 0.0 0.9 0.00 0.00 0.00 79 1017.4
20260902010505 83 355 0.0 0.0 0.00 0.00 0.00 79 1017.4
20260902010005 84 355 0.0 0.9 0.00 0.00 0.00 78 1017.1
20260902005505 84 355 0.0 0.9 0.00 0.00 0.00 78 1017.1
20260902005005 84 355 0.0 0.9 0.00 0.00 0.00 77 1017.1
20260902004505 85 355 0.0 0.9 0.00 0.00 0.00 76 1017.1
20260902004005 85 355 0.0 0.9 0.00 0.00 0.00 76 1017.4
20260902003005 86 355 0.0 0.0 0.00 0.00 0.00 75 1017.4
20260902002504 86 355 0.0 0.0 0.00 0.00 0.00 74 1017.4
20260902002005 87 355 0.0 0.0 0.00 0.00 0.00 74 1017.4
20260902001505 87 355 0.0 0.0 0.00 0.00 0.00 73 1017.4
20260902001005 88 355 0.0 0.0 0.00 0.00 0.00 72 1017.4
20260902000005 89 355 0.0 0.0 0.00 0.00 0.00 70 1017.4
20260901235505 89 355 0.0 0.0 0.00 0.00 0.00 69 1017.4
20260901235006 89 355 0.0 0.0 0.00 0.00 0.00 68 1017.4
20260901234005 90 355 0.0 0.0 0.00 0.00 0.00 66 1017.4
20260901233504 90 355 0.0 0.0 0.00 0.00 0.00 65 1017.4
20260901231505 91 355 0.0 0.0 0.00 0.00 0.00 59 1017.4
20260901230505 91 355 0.0 0.0 0.00 0.00 0.00 57 1017.4
20260901230005 91 355 0.0 0.9 0.00 0.00 0.00 56 1017.4
20260901225005 91 355 0.0 0.9 0.00 0.00 0.00 55 1017.4
20260901224005 92 355 0.0 1.7 0.00 0.00 0.00 54 1017.4
20260901223505 92 355 0.0 1.7 0.00 0.00 0.00 52 1017.4
20260901223006 92 355 0.0 1.7 0.00 0.00 0.00 52 1017.4
20260901222505 92 355 0.9 1.7 0.00 0.00 0.00 53 1017.4
20260901222006 92 116 0.9 1.7 0.00 0.00 0.00 52 1017.3
20260901221505 92 116 0.9 1.7 0.00 0.00 0.00 53 1017.3
20260901221005 92 116 0.0 1.7 0.00 0.00 0.00 52 1017.3
20260901220505 92 67 0.0 0.9 0.00 0.00 0.00 52 1017.3
20260901220005 92 67 0.0 1.7 0.00 0.00 0.00 51 1017.3
20260901215505 92 12 0.9 1.7 0.00 0.00 0.00 51 1017.3
20260901215005 92 130 0.0 1.7 0.00 0.00 0.00 53 1017.3
20260901213505 92 355 1.7 2.6 0.00 0.00 0.00 51 1017.4
20260901213005 92 95 0.9 1.7 0.00 0.00 0.00 51 1017.4
20260901212505 92 341 0.9 2.6 0.00 0.00 0.00 51 1017.4
20260901212006 92 345 1.7 2.6 0.00 0.00 0.00 51 1017.4
20260901211505 92 11 1.7 2.6 0.00 0.00 0.00 50 1017.4
20260901211005 93 15 1.7 2.6 0.00 0.00 0.00 50 1017.4
20260901210505 93 344 1.7 4.3 0.00 0.00 0.00 50 1017.4
20260901210004 93 336 1.7 2.6 0.00 0.00 0.00 49 1017.6
20260901205504 93 327 0.9 2.6 0.00 0.00 0.00 49 1017.6
20260901205005 93 1 0.9 2.6 0.00 0.00 0.00 50 1017.6
20260901204505 92 5 0.9 2.6 0.00 0.00 0.00 50 1017.6
20260901204005 92 15 0.0 0.9 0.00 0.00 0.00 50 1017.9
20260901203506 93 13 0.9 2.6 0.00 0.00 0.00 49 1017.9
20260901203006 93 348 1.7 2.6 0.00 0.00 0.00 48 1017.9
20260901202504 94 87 0.0 1.7 0.00 0.00 0.00 49 1017.9
20260901202005 93 225 0.0 1.7 0.00 0.00 0.00 51 1017.9
20260901201006 93 33 1.7 2.6 0.00 0.00 0.00 49 1018.1
20260901200505 93 302 0.9 1.7 0.00 0.00 0.00 49 1018.1
20260901195505 94 3 1.7 2.6 0.00 0.00 0.00 49 1018.6
20260901195005 93 32 0.9 2.6 0.00 0.00 0.00 53 1018.6
20260901194506 94 23 0.9 1.7 0.00 0.00 0.00 50 1018.6
20260901194005 95 113 1.7 2.6 0.00 0.00 0.00 48 1018.6
20260901193505 94 156 0.9 4.3 0.00 0.00 0.00 48 1018.6
20260901193006 94 125 0.0 2.6 0.00 0.00 0.00 49 1018.6
20260901192505 94 100 0.0 2.6 0.00 0.00 0.00 48 1018.6
20260901192005 94 124 1.7 2.6 0.00 0.00 0.00 49 1018.6
20260901191005 93 19 1.7 5.2 0.00 0.00 0.00 52 1019.0
20260901190506 93 14 1.7 2.6 0.00 0.00 0.00 49 1019.0
20260901190005 93 87 1.7 4.3 0.00 0.00 0.00 51 1019.0
20260901185506 93 248 0.9 1.7 0.00 0.00 0.00 52 1019.0
20260901185005 92 309 0.9 1.7 0.00 0.00 0.00 54 1019.0
20260901184504 92 65 0.9 1.7 0.00 0.00 0.00 53 1019.0
20260901184005 92 15 1.7 2.6 0.00 0.00 0.00 54 1019.0
20260901183006 92 72 2.6 5.2 0.00 0.00 0.00 52 1019.3
20260901182504 93 13 0.9 2.6 0.00 0.00 0.00 54 1019.3
20260901181505 92 9 0.9 1.7 0.00 0.00 0.00 53 1019.3
20260901181004 92 8 1.7 2.6 0.00 0.00 0.00 52 1019.3
20260901180505 92 44 0.9 2.6 0.00 0.00 0.00 53 1019.3
20260901180005 92 99 0.9 2.6 0.00 0.00 0.00 54 1019.4
20260901175506 93 12 1.7 2.6 0.00 0.00 0.00 53 1019.4
20260901175006 92 33 1.7 2.6 0.00 0.00 0.00 53 1019.5
20260901174506 92 14 1.7 2.6 0.00 0.00 0.00 54 1019.5
20260901174008 91 35 0.9 4.3 0.00 0.00 0.00 55 1019.5
20260901173505 91 20 1.7 4.3 0.00 0.00 0.00 53 1019.5
20260901173005 92 5 1.7 2.6 0.00 0.00 0.00 53 1019.6
20260901172505 91 75 0.9 5.2 0.00 0.00 0.00 54 1019.6
20260901172006 91 30 0.9 2.6 0.00 0.00 0.00 57 1020.0
20260901171505 91 19 1.7 4.3 0.00 0.00 0.00 55 1020.0
20260901171005 92 21 2.6 5.2 0.00 0.00 0.00 54 1020.0
20260901170505 91 12 0.9 2.6 0.00 0.00 0.00 56 1020.0
20260901170005 92 12 1.7 2.6 0.00 0.00 0.00 56 1020.1
20260901165505 90 12 0.9 2.6 0.00 0.00 0.00 58 1020.1
20260901165005 91 76 0.9 2.6 0.00 0.00 0.00 57 1020.1
20260901164505 91 10 1.7 2.6 0.00 0.00 0.00 58 1020.1
20260901164005 90 293 0.9 2.6 0.00 0.00 0.00 58 1020.1
20260901163505 90 346 0.9 2.6 0.00 0.00 0.00 61 1020.1
20260901163005 90 303 0.9 2.6 0.00 0.00 0.00 59 1020.6
20260901162505 90 22 1.7 2.6 0.00 0.00 0.00 59 1020.6
20260901162006 90 18 1.7 4.3 0.00 0.00 0.00 60 1020.6
20260901161505 90 324 0.9 4.3 0.00 0.00 0.00 59 1020.6
20260901161005 90 283 1.7 4.3 0.00 0.00 0.00 59 1020.6
20260901160506 91 45 1.7 2.6 0.00 0.00 0.00 59 1020.6
20260901160005 90 11 0.9 1.7 0.00 0.00 0.00 60 1020.6
20260901155505 90 11 0.9 1.7 0.00 0.00 0.00 60 1020.6
20260901154505 90 38 0.9 5.2 0.00 0.00 0.00 61 1020.6
20260901154005 89 42 0.9 5.2 0.00 0.00 0.00 60 1020.6
20260901153505 89 55 1.7 2.6 0.00 0.00 0.00 60 1020.6
20260901152505 89 278 0.9 2.6 0.00 0.00 0.00 63 1020.6
20260901152005 88 206 1.7 2.6 0.00 0.00 0.00 62 1020.6
20260901151505 89 299 0.9 4.3 0.00 0.00 0.00 62 1020.6
20260901151005 88 244 1.7 4.3 0.00 0.00 0.00 62 1020.6
20260901150005 87 248 0.9 2.6 0.00 0.00 0.00 65 1020.6
20260901145506 87 7 0.0 0.0 0.00 0.00 0.00 67 1020.6
20260901145005 87 249 0.0 0.0 0.00 0.00 0.00 70 1020.6
20260901144505 86 147 0.0 0.0 0.00 0.00 0.00 70 1020.6
20260901144005 86 146 0.0 0.0 0.00 0.00 0.00 73 1020.6
20260901143005 86 244 0.0 0.9 0.00 0.00 0.00 71 1020.6
20260901142505 85 30 0.0 0.9 0.00 0.00 0.00 73 1020.6
20260901142005 85 30 0.0 1.7 0.00 0.00 0.00 73 1020.6
20260901141005 83 16 0.0 0.9 0.00 0.00 0.00 76 1020.6
20260901140505 82 16 0.0 0.9 0.00 0.00 0.00 76 1020.6
20260901135504 80 16 0.0 0.0 0.00 0.00 0.00 80 1020.5
20260901135005 79 16 0.0 1.7 0.00 0.00 0.00 83 1020.5
20260901134505 77 16 0.9 1.7 0.00 0.00 0.00 86 1020.6
20260901134005 75 16 0.9 1.7 0.00 0.00 0.00 89 1020.6
20260901133505 74 16 0.9 1.7 0.00 0.00 0.00 89 1020.6
20260901133005 74 16 0.9 2.6 0.00 0.00 0.00 89 1020.5
20260901132505 73 16 0.9 1.7 0.00 0.00 0.00 89 1020.5
20260901132005 73 16 0.9 1.7 0.00 0.00 0.00 89 1020.5
20260901131505 73 16 0.9 1.7 0.00 0.00 0.00 89 1020.5
20260901131006 72 16 0.9 1.7 0.00 0.00 0.00 89 1020.5
20260901130505 72 16 0.9 0.9 0.00 0.00 0.00 89 1020.5
20260901130005 72 16 0.0 0.0 0.00 0.00 0.00 89 1020.5
20260901125505 72 16 0.0 0.0 0.00 0.00 0.00 89 1020.5
20260901125005 71 16 0.0 0.9 0.00 0.00 0.00 89 1020.5
20260901124506 70 16 0.0 0.0 0.00 0.00 0.00 89 1020.5
20260901124005 70 16 0.0 0.0 0.00 0.00 0.00 89 1020.5
20260901123505 70 16 0.0 0.0 0.00 0.00 0.00 89 1020.5
20260901122505 69 16 0.0 0.0 0.00 0.00 0.00 89 1020.3
20260901122005 69 16 0.0 0.0 0.00 0.00 0.00 90 1020.0
20260901121506 69 16 0.0 0.0 0.00 0.00 0.00 90 1020.0
20260901121005 69 16 0.0 0.0 0.00 0.00 0.00 90 1020.0
20260901120505 69 16 0.0 0.9 0.00 0.00 0.00 90 1020.0
20260901120005 68 16 0.0 0.0 0.00 0.00 0.00 90 1019.8
20260901115506 68 16 0.0 0.0 0.00 0.00 0.00 90 1019.8
20260901114506 68 16 0.0 0.0 0.00 0.00 0.00 90 1019.8
20260901114006 68 16 0.0 0.0 0.00 0.00 0.00 90 1019.5
20260901113005 69 16 0.0 0.0 0.00 0.00 0.00 90 1019.3
20260901112505 69 16 0.0 0.0 0.00 0.00 0.00 90 1019.3
20260901111505 69 16 0.0 0.0 0.00 0.00 0.00 90 1019.3
20260901111005 69 16 0.0 0.0 0.00 0.00 0.00 90 1019.3
20260901110505 69 16 0.0 0.0 0.00 0.00 0.00 90 1019.3
20260901110005 69 16 0.0 0.0 0.00 0.00 0.00 90 1019.1
20260901105505 69 16 0.0 0.0 0.00 0.00 0.00 90 1019.1
20260901105005 69 16 0.0 0.0 0.00 0.00 0.00 90 1019.1
20260901104504 69 16 0.0 0.0 0.00 0.00 0.00 90 1019.1
20260901104005 69 16 0.0 0.0 0.00 0.00 0.00 90 1019.1
20260901103505 69 16 0.0 0.0 0.00 0.00 0.00 90 1019.1
20260901103005 69 16 0.0 0.0 0.00 0.00 0.00 90 1018.9
20260901102505 69 16 0.0 0.0 0.00 0.00 0.00 90 1018.9
20260901102006 69 16 0.0 0.0 0.00 0.00 0.00 90 1018.9
20260901101505 69 16 0.0 0.0 0.00 0.00 0.00 90 1018.9
20260901101006 69 16 0.0 0.0 0.00 0.00 0.00 90 1018.9
20260901100506 69 16 0.0 0.0 0.00 0.00 0.00 90 1018.9
20260901100005 69 16 0.0 0.0 0.00 0.00 0.00 90 1018.9
20260901095506 69 16 0.0 0.9 0.00 0.00 0.00 90 1018.9
20260901094506 69 16 0.0 0.0 0.00 0.00 0.00 90 1019.0
20260901093505 69 16 0.0 0.0 0.00 0.00 0.00 89 1019.0
20260901092006 70 16 0.0 0.9 0.00 0.00 0.00 89 1018.7
20260901091504 70 16 0.0 0.0 0.00 0.00 0.00 90 1018.7
20260901091005 70 16 0.0 0.0 0.00 0.00 0.00 90 1018.7
20260901090005 70 16 0.0 0.0 0.00 0.00 0.00 90 1018.7
20260901085504 70 16 0.0 0.0 0.00 0.00 0.00 90 1018.7
20260901085006 70 16 0.0 0.0 0.00 0.00 0.00 90 1018.7
20260901084006 70 16 0.0 0.0 0.00 0.00 0.00 89 1018.7
20260901083506 70 16 0.0 0.0 0.00 0.00 0.00 89 1018.7
20260901083013 70 16 0.0 0.9 0.00 0.00 0.00 89 1018.7
20260901082005 70 16 0.0 0.9 0.00 0.00 0.00 89 1018.6
20260901081005 70 16 0.0 0.9 0.00 0.00 0.00 89 1018.6
20260901080505 70 16 0.0 0.0 0.00 0.00 0.00 89 1018.6
20260901080005 70 16 0.0 0.0 0.00 0.00 0.00 89 1018.4
20260901075505 70 16 0.0 0.0 0.00 0.00 0.00 89 1018.4
20260901075006 70 16 0.0 0.0 0.00 0.00 0.00 89 1018.5
20260901074504 71 16 0.0 0.0 0.00 0.00 0.00 89 1018.5
20260901074005 71 16 0.0 0.0 0.00 0.00 0.00 89 1018.5
20260901073005 71 16 0.0 0.9 0.00 0.00 0.00 89 1018.4
20260901072505 71 16 0.0 0.9 0.00 0.00 0.00 89 1018.4
20260901072005 71 16 0.0 0.0 0.00 0.00 0.00 89 1018.6
20260901071505 71 16 0.0 0.0 0.00 0.00 0.00 89 1018.6
20260901071006 71 16 0.0 0.0 0.00 0.00 0.00 89 1018.6
20260901070506 71 16 0.0 0.0 0.00 0.00 0.00 89 1018.6
20260901070005 71 16 0.0 0.0 0.00 0.00 0.00 89 1018.7
20260901065505 71 16 0.0 0.0 0.00 0.00 0.00 89 1018.7
20260901065005 71 16 0.0 0.0 0.00 0.00 0.00 89 1018.7
20260901064505 71 16 0.0 0.0 0.00 0.00 0.00 89 1018.7
20260901063505 71 16 0.0 0.0 0.00 0.00 0.00 89 1018.7
20260901062505 71 16 0.0 0.0 0.00 0.00 0.00 89 1018.9
20260901062005 72 16 0.0 0.0 0.00 0.00 0.00 89 1018.9
20260901061506 72 16 0.0 0.0 0.00 0.00 0.00 89 1018.9
20260901061005 72 16 0.0 0.0 0.00 0.00 0.00 89 1018.9
20260901060505 72 16 0.0 0.9 0.00 0.00 0.00 88 1018.9
20260901060006 72 16 0.0 0.0 0.00 0.00 0.00 89 1019.0
20260901055505 72 16 0.0 0.0 0.00 0.00 0.00 89 1019.0
20260901055006 72 16 0.0 0.0 0.00 0.00 0.00 88 1019.0
20260901054505 72 16 0.0 0.0 0.00 0.00 0.00 88 1019.0
20260901054005 72 16 0.0 0.0 0.00 0.00 0.00 88 1019.0
20260901053505 72 16 0.0 0.0 0.00 0.00 0.00 88 1019.0
20260901053005 72 16 0.0 0.0 0.00 0.00 0.00 88 1019.0
20260901052505 72 16 0.0 0.0 0.00 0.00 0.00 88 1019.0
20260901051505 73 16 0.0 0.0 0.00 0.00 0.00 88 1019.0
20260901051006 73 16 0.0 0.0 0.00 0.00 0.00 88 1019.0
20260901050505 73 16 0.0 0.9 0.00 0.00 0.00 88 1019.0
20260901050005 73 16 0.0 0.9 0.00 0.00 0.00 88 1019.0
20260901045005 73 16 0.0 0.0 0.00 0.00 0.00 88 1019.0
20260901044506 73 16 0.0 0.0 0.00 0.00 0.00 88 1019.0